Terminal Aerodrome Forecast
Issued by NWS Miami, FL

Home | Current Version | Previous Version | Text Only | Print | Product List | Glossary On
Versions: 1 2 3 4 5 6 7 8 9 10 11 12 13 14 15 16 17 18 19 20 21 22 23 24 25 26 27 28 29 30 31 32 33 34 35 36 37 38 39 40 41 42 43 44 45
000
FTUS42 KMFL 310538
TAFPBI
TAF
KPBI 310538Z 3106/0106 34007KT P6SM FEW045 BKN250
     FM310800 02010KT P6SM FEW030 SCT250
     FM311400 06014G20KT P6SM SCT040 BKN050
     FM010200 09011KT P6SM SCT030=

USA.gov is the U.S. government's official web portal to all federal, state and local government web resources and services.